Location: New Frontier Mobile Home Park
(32.8448°N, 116.9675°W)
Time: 23:05:23
(UTC+00:00)

Cosmos 1818 - Pass Details

Date: 14 July 2020
Orbit: 777 x 796 km, 65.0° (Epoch: 05 August)

Event Time Altitude Azimuth Distance (km) Brightness Sun altitude
Rises 11:25:30 0° 333° (NNW) 3,301 6.9 -15.8°
Reaches altitude 10° 11:27:56 10° 334° (NNW) 2,368 6.2 -15.4°
Maximum altitude 11:33:24 83° 62° (ENE) 804 3.6 -14.5°
Drops below altitude 10° 11:38:49 10° 150° (SSE) 2,348 5.9 -13.6°
Sets 11:41:13 0° 151° (SSE) 3,271 6.7 -13.2°
